Wetbulb
75.87 75.22 74.21 68.53 61.22 59.23 54.59 57.56 62.47 60.03 60.81 64.75 65.70 63.99 62.50 64.71 60.87 55.80 69.71 72.04 72.85 72.87 73.98 74.49 76.85 77.20 77.13 78.16 78.35 78.18 78.49 78.67 78.98 78.92 78.78 78.72 78.15 78.07 78.24 77.79 77.25 77.04 76.72 76.50 76.61 76.44 75.92 75.81 75.67
74.61 74.37 67.27 62.87 57.43 53.06 55.07 60.88 60.13 62.27 64.41 66.28 66.34 65.00 63.09 61.26 66.89 67.62 69.00 72.43 73.37 73.18 73.51 74.53 76.98 77.71 77.33 77.97 78.21 78.49 77.97 77.79 78.82 78.63 78.78 78.59 78.07 78.32 77.42 77.23 76.90 76.83 76.64 76.50 76.45 76.28 76.00 75.84 75.78
74.12 71.63 63.54 59.17 57.15 53.31 55.15 60.95 62.20 64.66 66.60 65.62 64.12 67.06 65.05 63.52 68.24 68.80 71.57 72.86 73.07 72.23 73.70 75.07 77.36 78.01 77.77 77.64 78.03 78.26 78.09 77.86 77.94 78.51 78.44 77.99 77.48 77.26 77.10 76.83 76.72 76.69 76.53 76.50 76.28 76.12 76.11 76.03 75.48
72.13 70.65 68.12 60.39 55.10 59.00 60.46 61.67 64.69 64.72 66.13 67.10 66.00 62.65 67.20 70.14 68.78 70.94 72.32 72.89 72.61 73.37 75.08 77.27 78.07 77.42 77.74 77.81 78.20 77.74 77.61 77.74 78.35 78.74 78.35 77.72 77.05 77.19 76.86 76.67 76.56 76.42 76.40 76.67 76.64 75.95 75.64 75.70 75.28
72.37 68.64 59.79 59.33 56.91 60.43 61.89 64.15 65.27 63.62 65.23 65.23 66.23 63.06 64.27 69.15 71.41 71.62 71.84 73.23 71.63 73.03 75.10 76.16 78.43 78.63 78.34 78.01 78.14 77.71 77.32 77.35 78.54 78.55 78.28 77.81 77.22 77.08 76.51 76.23 76.20 76.17 76.26 76.51 76.65 75.90 75.29 74.98 75.28
66.53 66.30 57.61 55.94 56.72 61.58 62.31 64.13 64.41 64.85 65.65 66.38 65.11 63.70 64.58 70.18 70.02 71.35 72.78 73.12 73.07 73.21 74.63 75.59 77.93 78.49 78.47 78.08 77.83 77.47 77.25 77.25 78.58 78.51 78.42 78.23 77.89 77.35 77.19 76.12 75.98 75.80 75.86 76.17 76.20 75.98 75.59 75.12 74.82
66.05 60.40 57.88 56.73 57.38 57.57 62.00 65.13 64.90 64.55 64.71 64.73 67.50 62.15 65.64 68.42 70.75 72.04 72.59 73.07 73.13 73.88 73.93 74.95 75.52 76.76 78.40 78.71 77.57 77.22 77.36 77.41 78.07 78.08 77.92 77.74 77.13 76.12 76.40 76.37 75.92 75.67 75.63 75.66 75.84 75.95 76.83 76.65 76.22
64.68 61.13 57.97 57.87 55.25 54.63 62.72 62.99 66.89 65.61 64.67 68.99 69.02 63.26 63.23 68.58 71.57 72.13 72.71 72.64 72.92 73.46 73.97 74.15 74.63 75.10 75.17 75.43 77.37 77.10 77.25 77.28 77.20 77.04 76.88 76.83 76.67 76.45 76.56 77.49 77.15 76.09 75.86 75.50 75.52 76.43 77.02 77.29 77.75
66.36 56.89 54.39 56.55 55.75 56.00 60.80 61.96 66.31 68.94 66.45 67.54 68.32 68.12 69.18 71.29 71.81 71.05 71.02 71.44 72.06 73.54 73.57 74.05 74.55 74.63 74.08 74.01 75.47 77.09 77.23 77.41 77.40 76.81 77.54 77.44 74.50 72.96 75.81 76.28 77.33 76.34 76.34 76.73 75.98 77.58 77.25 78.03 76.97
61.57 55.57 56.69 61.48 60.64 56.87 61.47 63.31 63.85 64.53 64.83 65.31 66.76 69.35 70.75 70.96 70.63 69.60 69.19 69.63 70.34 71.10 72.83 74.01 73.99 74.51 73.75 74.64 73.61 73.64 74.46 74.01 73.50 73.71 73.81 74.96 73.34 73.12 74.75 76.71 77.95 76.81 76.48 76.87 76.45 76.69 71.47 75.44 73.36
61.64 57.74 60.69 61.39 62.59 62.21 59.35 60.49 63.14 61.64 61.94 65.10 64.94 66.92 69.45 70.07 69.77 69.24 69.61 69.94 70.04 71.64 72.56 73.16 73.99 74.68 73.94 73.21 73.34 73.41 73.49 73.19 73.24 72.94 73.66 74.29 75.08 72.77 74.41 74.66 74.88 72.16 76.56 74.02 75.10 74.75 70.92 71.90 72.32
58.51 61.80 61.85 61.33 63.14 61.07 59.98 60.98 61.35 62.41 62.88 68.09 68.00 67.76 68.02 69.03 69.13 69.47 69.47 69.76 70.15 70.36 71.59 72.12 72.02 73.38 72.75 73.65 72.91 73.49 73.25 73.35 73.08 73.93 75.08 73.64 72.73 71.53 73.11 73.85 74.00 74.11 74.16 74.27 73.87 72.20 72.19 72.11 73.45
60.21 61.33 62.32 62.98 62.87 61.90 61.64 60.11 61.60 62.31 67.63 68.98 68.80 68.17 67.42 67.09 69.17 70.34 70.70 70.90 71.05 70.39 71.64 73.04 73.43 73.42 73.63 73.66 72.23 72.82 73.52 74.26 73.73 74.14 74.19 73.10 71.98 72.83 74.27 73.33 73.13 73.69 74.01 73.23 72.11 73.03 73.13 72.18 71.35
61.87 62.58 62.02 60.93 60.96 62.14 60.73 60.29 61.60 63.71 68.13 68.02 68.08 67.15 67.40 66.85 66.86 69.15 69.41 70.56 70.51 70.67 71.82 73.66 73.49 74.41 73.33 74.01 74.48 75.59 74.56 73.19 73.62 73.84 74.18 74.55 73.30 73.75 73.44 74.41 73.44 73.28 73.83 73.22 74.36 73.04 72.77 72.84 73.42
58.17 56.14 61.34 60.84 57.54 60.57 62.33 58.66 59.58 63.81 66.76 66.45 66.87 67.33 67.80 67.79 67.64 66.81 70.10 70.05 70.05 70.48 71.79 72.99 73.31 74.47 73.61 73.58 74.31 73.46 74.12 72.42 72.23 74.12 74.60 74.18 74.15 73.45 73.44 73.36 72.99 73.26 74.61 73.37 73.60 73.83 73.25 73.59 73.73
53.64 52.09 48.81 55.57 57.33 58.89 59.60 53.78 60.04 62.96 64.54 64.59 66.04 66.74 67.36 67.40 67.66 68.20 69.85 70.79 70.65 70.88 72.43 73.61 74.52 73.80 73.35 73.77 74.65 73.28 72.41 72.65 73.50 73.69 73.41 74.94 75.49 74.51 73.24 72.85 72.83 74.35 74.23 74.11 71.66 70.92 71.54 70.96 68.27
48.17 45.99 48.58 52.58 58.06 58.62 57.84 54.54 60.87 61.72 63.54 63.12 64.53 65.48 66.12 66.47 67.28 68.54 70.04 70.64 71.05 70.45 72.16 72.22 73.18 73.38 73.54 74.12 75.11 73.99 73.54 73.99 74.23 72.87 73.63 73.81 75.25 74.95 73.74 73.65 73.52 74.53 72.85 72.06 71.79 70.19 70.18 65.51 64.66
44.46 46.19 48.95 50.94 56.55 58.00 56.17 55.59 60.42 61.18 61.66 62.83 63.78 64.74 65.27 65.59 66.39 68.66 69.43 71.03 71.66 71.30 72.64 72.22 72.33 73.88 73.93 74.86 74.23 74.38 73.55 74.72 74.06 72.78 74.28 73.90 75.21 75.66 73.76 73.04 73.04 72.71 71.97 71.72 70.24 69.44 67.90 65.09 65.41
50.45 49.75 49.65 53.09 58.52 57.35 56.90 56.45 58.48 60.12 60.18 60.78 62.99 63.72 64.44 65.32 66.86 68.70 69.44 70.94 71.20 71.98 72.65 71.65 71.91 73.72 74.05 73.63 73.31 72.64 71.67 73.04 73.26 73.96 74.75 74.40 74.74 74.73 73.39 73.08 72.78 72.74 71.60 70.38 71.67 66.45 63.59 64.79 66.49
50.06 49.18 49.54 53.68 58.17 57.17 58.21 56.66 58.74 59.15 59.23 61.09 62.20 63.40 64.02 65.09 65.86 67.82 68.63 69.63 70.67 70.98 72.25 72.04 72.37 74.58 73.96 74.13 73.33 72.84 71.85 72.80 72.84 72.89 73.31 73.64 75.09 74.48 73.71 72.65 72.31 72.52 72.37 70.31 66.34 65.34 63.44 64.94 65.74
49.39 48.26 49.73 51.69 57.18 58.48 58.05 55.95 55.80 59.16 61.24 62.28 63.03 64.06 64.90 64.80 65.08 66.79 67.84 68.67 69.87 70.40 72.06 72.47 73.33 74.65 74.60 74.55 74.23 73.66 73.33 73.53 73.56 73.12 73.41 75.48 75.05 75.08 73.79 73.16 72.76 72.02 70.50 66.80 66.11 65.26 64.60 63.08 65.93
46.29 52.49 52.84 52.43 53.74 49.84 58.23 49.13 54.77 57.82 59.61 61.31 61.51 62.53 63.35 64.77 66.09 66.84 67.93 68.23 69.60 70.86 72.64 72.65 73.52 75.15 73.80 74.76 72.97 71.46 70.58 69.89 71.56 73.59 72.80 73.78 74.69 74.60 74.36 73.91 72.59 70.55 68.96 67.52 66.19 66.89 65.50 64.34 61.19
48.74 53.50 52.71 52.41 50.56 52.48 52.94 49.93 52.21 58.65 57.88 59.98 61.07 62.05 63.01 64.13 65.45 66.69 68.11 68.76 70.11 71.48 72.17 73.54 73.52 75.03 74.08 73.63 73.92 72.84 71.64 72.02 70.98 69.73 72.50 73.58 73.41 73.44 73.97 74.08 71.39 68.08 68.49 68.48 66.74 65.65 65.19 66.36 65.37
52.08 50.90 51.24 51.30 49.64 44.56 51.32 50.59 50.79 53.17 58.19 59.69 61.21 62.70 63.19 63.76 65.10 66.65 68.50 69.76 69.82 71.66 73.16 73.80 73.37 73.31 75.27 73.25 73.63 73.51 72.67 71.19 68.89 71.43 72.18 72.77 71.05 71.63 72.52 72.67 69.94 68.15 68.09 67.38 66.84 67.57 65.98 65.23 65.17
49.27 45.33 42.65 41.58 42.87 41.91 52.38 51.03 51.78 57.40 59.88 62.02 62.58 62.99 63.65 64.49 64.62 64.92 67.16 68.67 69.24 70.38 72.10 73.79 73.49 73.41 74.62 75.05 74.64 74.50 74.05 72.69 71.26 71.23 70.30 70.18 69.76 69.68 70.42 70.80 69.59 67.80 67.84 68.56 67.99 66.81 65.47 65.09 64.32
46.73 45.52 42.73 36.28 39.79 42.89 48.43 47.32 52.73 60.13 61.55 63.83 63.33 63.38 62.89 65.03 65.07 65.16 66.06 68.17 69.45 69.93 71.70 73.79 73.69 73.55 75.00 74.88 74.52 74.70 74.49 75.35 72.89 72.77 71.38 69.42 70.84 70.29 70.35 70.74 70.24 68.72 67.27 69.79 68.57 66.83 66.48 66.36 64.45
45.89 43.99 46.77 40.91 43.99 41.93 46.42 49.53 54.23 59.73 60.23 61.01 61.50 62.24 62.79 63.30 65.66 65.66 66.16 67.69 69.16 69.75 71.29 72.22 74.29 74.23 74.84 75.49 75.37 75.06 74.41 74.41 75.18 73.18 73.34 71.32 70.19 71.33 70.99 71.58 70.47 69.57 68.03 68.27 67.79 67.28 66.13 66.44 65.28
48.61 47.62 42.80 44.08 37.47 38.41 44.19 46.10 48.21 54.12 57.94 59.39 60.16 60.83 61.90 63.63 63.81 65.80 66.69 67.32 69.48 70.49 71.46 72.79 75.06 74.62 75.51 74.88 76.05 76.23 75.71 74.80 74.75 73.87 72.77 73.07 70.82 71.78 71.34 71.85 70.72 70.80 69.03 68.85 67.98 66.33 67.70 66.48 66.77
45.49 45.73 43.74 43.65 44.11 39.74 39.53 44.53 51.64 56.80 59.22 59.05 60.47 62.10 62.92 63.42 65.52 65.90 67.40 67.86 69.82 70.69 71.24 72.32 74.43 74.91 75.54 75.77 75.37 75.92 76.41 75.81 74.79 74.75 73.58 72.88 72.50 72.09 71.62 71.78 71.13 69.86 69.91 69.69 68.56 66.36 66.37 66.95 65.81
50.61 46.72 43.82 41.58 37.84 42.07 42.27 44.35 54.80 55.36 60.60 61.18 61.45 61.66 62.20 63.31 64.87 66.96 67.90 68.44 69.04 70.07 70.85 71.84 74.79 74.74 75.55 76.35 76.24 75.56 75.80 76.39 75.22 74.33 73.88 74.32 72.31 72.76 72.47 71.93 71.32 70.03 69.18 69.59 68.46 66.57 67.39 66.63 66.11
MSLP
1009.85 1010.35 1010.64 1010.82 1011.66 1011.13 1009.33 1007.90 1006.52 1006.67 1007.16 1007.90 1008.12 1008.77 1009.37 1009.77 1010.15 1012.92 1013.66 1013.95 1014.35 1014.79 1014.99 1015.12 1015.23 1015.41 1015.75 1015.97 1016.18 1016.48 1016.72 1016.78 1016.87 1017.08 1017.20 1017.30 1017.48 1017.65 1017.67 1017.80 1017.98 1017.98 1018.06 1018.09 1018.00 1017.97 1017.98 1017.92 1017.83
1009.70 1010.13 1010.85 1011.70 1011.79 1010.12 1008.55 1007.08 1006.39 1006.34 1007.48 1007.53 1008.23 1008.95 1009.31 1010.84 1010.76 1012.33 1013.47 1013.81 1014.02 1014.54 1014.93 1015.19 1015.40 1015.54 1015.91 1016.11 1016.39 1016.70 1016.86 1016.96 1017.11 1017.31 1017.43 1017.54 1017.72 1017.77 1017.81 1018.00 1018.08 1018.15 1018.20 1018.18 1018.10 1018.08 1018.10 1018.15 1018.07
1009.75 1010.36 1011.68 1011.43 1010.05 1008.68 1007.16 1006.14 1006.36 1006.57 1006.96 1007.17 1008.11 1008.54 1009.94 1011.28 1011.60 1012.28 1012.96 1013.31 1013.72 1014.34 1014.87 1015.18 1015.44 1015.71 1016.02 1016.29 1016.53 1016.77 1016.98 1017.12 1017.41 1017.56 1017.73 1017.85 1017.94 1017.95 1018.06 1018.22 1018.31 1018.37 1018.34 1018.27 1018.20 1018.16 1018.18 1018.15 1018.11
1009.48 1009.97 1010.21 1009.84 1007.86 1006.24 1005.11 1004.70 1004.77 1005.58 1006.71 1007.31 1007.63 1008.94 1010.21 1010.81 1011.30 1012.06 1012.62 1013.08 1013.76 1014.44 1014.88 1015.19 1015.56 1015.84 1016.15 1016.43 1016.62 1016.83 1017.10 1017.41 1017.63 1017.76 1017.87 1017.96 1017.98 1018.08 1018.27 1018.36 1018.38 1018.35 1018.32 1018.31 1018.26 1018.32 1018.27 1018.29 1018.27
1009.14 1008.62 1007.84 1007.28 1005.90 1004.10 1003.41 1003.68 1004.60 1005.19 1006.28 1007.18 1008.23 1009.61 1010.55 1011.18 1011.68 1012.12 1012.53 1013.09 1013.73 1014.52 1014.90 1015.28 1015.60 1015.89 1016.22 1016.53 1016.70 1016.97 1017.33 1017.55 1017.69 1017.80 1017.86 1017.93 1018.01 1018.16 1018.23 1018.33 1018.42 1018.36 1018.32 1018.26 1018.25 1018.41 1018.35 1018.16 1018.26
1008.03 1007.49 1007.33 1005.48 1003.32 1002.87 1002.60 1003.18 1004.41 1005.30 1006.31 1007.55 1008.50 1009.62 1011.00 1011.64 1011.91 1012.30 1012.65 1013.04 1013.70 1014.44 1014.98 1015.35 1015.67 1015.92 1016.24 1016.53 1016.84 1017.18 1017.42 1017.59 1017.71 1017.81 1017.98 1018.13 1018.20 1018.20 1018.26 1018.29 1018.29 1018.34 1018.27 1018.25 1018.28 1018.25 1018.25 1018.14 1018.20
1007.68 1009.21 1007.26 1005.53 1003.60 1002.34 1002.61 1002.86 1003.95 1004.95 1006.08 1007.00 1007.91 1009.66 1010.99 1011.52 1011.67 1012.04 1012.53 1013.04 1013.65 1014.25 1014.96 1015.41 1015.71 1015.98 1016.27 1016.59 1016.94 1017.30 1017.43 1017.60 1017.79 1017.98 1018.13 1018.18 1018.24 1018.37 1018.45 1018.42 1018.33 1018.29 1018.20 1018.08 1018.10 1018.14 1018.12 1018.21 1018.45
1007.87 1008.57 1007.83 1004.98 1002.79 1002.35 1002.14 1002.20 1002.67 1003.73 1005.58 1006.80 1007.16 1009.27 1010.70 1010.70 1011.06 1011.74 1012.31 1012.98 1013.70 1014.31 1014.84 1015.35 1015.76 1016.07 1016.38 1016.70 1016.98 1017.25 1017.36 1017.51 1017.86 1017.89 1017.88 1018.00 1018.09 1018.19 1018.41 1018.48 1018.43 1018.19 1018.07 1017.91 1017.90 1018.00 1018.12 1018.31 1018.65
1007.41 1008.11 1007.03 1004.38 1002.41 1002.01 1001.58 1002.13 1003.07 1003.65 1005.05 1006.50 1006.55 1007.79 1008.71 1010.03 1010.76 1011.41 1012.21 1013.03 1013.64 1014.36 1014.84 1015.20 1015.67 1016.08 1016.36 1016.73 1016.96 1017.19 1017.31 1017.50 1017.79 1017.61 1017.84 1017.90 1017.90 1018.15 1018.12 1018.42 1018.11 1017.97 1017.96 1017.91 1017.99 1018.02 1017.68 1017.77 1018.20
1006.46 1007.22 1005.48 1003.12 1002.37 1001.58 1001.44 1001.77 1002.67 1003.75 1004.96 1005.61 1006.72 1007.75 1008.69 1009.43 1010.32 1011.04 1011.90 1012.60 1013.31 1014.12 1014.63 1015.03 1015.35 1015.82 1016.18 1016.38 1016.86 1017.17 1017.21 1017.34 1017.58 1017.39 1017.58 1017.66 1017.81 1017.82 1017.95 1017.96 1017.96 1017.64 1017.58 1017.83 1018.15 1017.80 1017.76 1017.79 1018.00
1005.53 1004.99 1003.30 1002.13 1001.28 1000.80 1001.01 1001.50 1002.07 1003.04 1004.49 1005.10 1006.16 1007.19 1008.37 1009.26 1010.21 1010.76 1011.75 1012.16 1012.59 1013.33 1014.01 1014.54 1014.92 1015.27 1015.67 1015.91 1016.54 1016.84 1016.93 1017.05 1017.25 1017.20 1017.21 1017.51 1017.45 1017.51 1017.78 1017.67 1017.98 1017.64 1017.31 1017.68 1017.92 1017.98 1018.08 1018.00 1018.17
1004.18 1002.91 1001.86 1001.26 1000.40 1000.14 1000.51 1001.10 1001.99 1002.56 1003.41 1004.55 1005.89 1006.64 1007.52 1008.89 1009.65 1010.26 1011.00 1011.75 1012.38 1012.77 1013.28 1013.82 1014.26 1014.65 1015.20 1015.60 1015.94 1016.13 1016.45 1016.59 1016.82 1016.96 1016.88 1017.14 1017.03 1017.31 1017.52 1017.47 1017.41 1017.43 1017.39 1017.55 1017.67 1017.85 1018.13 1018.19 1017.79
1002.56 1001.77 1001.15 1000.20 999.95 1000.22 999.97 1000.65 1001.52 1002.20 1002.96 1004.46 1005.83 1006.72 1007.34 1008.11 1009.21 1009.70 1010.22 1011.16 1011.84 1012.28 1012.81 1013.33 1013.85 1014.35 1014.69 1014.98 1015.34 1015.76 1015.88 1016.14 1016.29 1016.35 1016.55 1016.73 1016.95 1017.16 1017.11 1017.46 1017.46 1017.16 1017.25 1017.23 1017.66 1017.73 1017.69 1017.72 1017.71
1000.91 1001.12 1000.12 998.57 998.74 999.11 999.84 1000.34 1001.30 1002.43 1003.26 1004.33 1005.50 1006.68 1007.25 1007.78 1008.26 1009.33 1009.96 1010.74 1011.30 1011.72 1012.33 1012.87 1013.50 1013.97 1014.15 1014.73 1015.13 1015.14 1015.02 1015.26 1015.73 1016.15 1016.27 1016.37 1016.86 1017.08 1017.16 1017.21 1017.21 1017.16 1017.04 1017.19 1017.19 1017.30 1017.39 1017.46 1017.45
999.99 1000.04 999.90 998.90 998.63 998.90 999.73 1001.56 1001.85 1002.32 1003.14 1004.16 1005.26 1006.40 1007.24 1007.62 1007.91 1008.50 1009.34 1010.06 1010.57 1011.12 1011.74 1012.52 1013.07 1013.52 1013.89 1014.21 1014.47 1014.60 1014.90 1014.98 1015.23 1015.78 1016.11 1016.32 1016.60 1016.83 1017.04 1017.12 1017.19 1017.30 1017.17 1017.15 1017.40 1017.33 1017.29 1017.40 1017.23
1000.08 999.71 999.18 998.16 998.01 998.56 999.69 1001.93 1002.10 1002.33 1003.00 1004.13 1005.05 1006.04 1006.91 1007.33 1007.63 1008.01 1008.83 1009.45 1009.98 1010.47 1011.36 1012.00 1012.69 1013.15 1013.49 1013.86 1014.18 1014.51 1014.69 1014.97 1015.17 1015.52 1015.78 1015.95 1016.07 1016.55 1016.68 1016.91 1017.10 1017.13 1017.22 1017.42 1017.56 1017.73 1017.68 1017.72 1017.69
1000.17 1000.02 999.12 997.92 997.61 998.48 999.36 1001.40 1001.35 1001.89 1002.70 1003.59 1004.42 1005.50 1006.34 1006.92 1007.26 1007.56 1008.02 1008.77 1009.48 1010.01 1010.97 1011.66 1012.21 1012.75 1013.19 1013.64 1014.01 1014.37 1014.56 1014.77 1014.86 1015.02 1015.39 1015.70 1016.07 1016.36 1016.55 1016.74 1016.95 1016.94 1017.25 1017.40 1017.76 1017.78 1017.88 1018.00 1017.82
1000.45 999.84 998.88 998.14 997.63 998.46 999.90 1001.08 1001.49 1001.81 1002.42 1003.14 1003.70 1004.57 1005.62 1006.22 1006.53 1006.84 1007.41 1008.21 1008.92 1009.52 1010.34 1011.05 1011.58 1012.33 1012.95 1013.48 1013.97 1014.32 1014.66 1014.76 1014.73 1014.84 1015.13 1015.59 1015.74 1015.93 1016.49 1016.62 1016.84 1016.88 1017.35 1017.60 1017.69 1017.85 1017.86 1017.93 1017.93
999.94 999.30 998.57 997.49 997.32 998.41 999.82 1000.79 1001.14 1001.07 1002.11 1002.89 1002.89 1003.58 1004.46 1005.24 1005.69 1006.35 1006.83 1007.61 1008.53 1009.20 1009.83 1010.48 1011.19 1012.00 1012.70 1013.37 1013.91 1014.49 1014.77 1014.72 1014.75 1014.69 1014.84 1015.18 1015.26 1015.67 1016.27 1016.38 1016.62 1016.80 1017.25 1017.38 1017.63 1017.94 1018.06 1018.19 1017.98
999.25 998.75 997.99 997.79 996.45 997.90 999.39 1000.71 1000.80 1000.57 1000.37 1001.35 1002.10 1002.65 1003.28 1004.24 1004.92 1005.65 1006.33 1007.01 1007.84 1008.64 1009.34 1010.03 1010.61 1011.43 1012.18 1012.83 1013.39 1013.86 1014.15 1014.25 1014.34 1014.48 1014.65 1014.83 1014.92 1015.20 1015.65 1016.02 1016.52 1016.70 1017.00 1017.48 1017.73 1017.98 1018.40 1018.40 1018.16
998.36 997.88 997.47 997.93 997.63 998.30 999.86 1001.08 1001.24 1000.06 999.95 1000.60 1001.23 1001.48 1002.17 1002.79 1003.78 1004.65 1005.44 1006.15 1006.99 1007.87 1008.66 1009.41 1010.12 1010.90 1011.64 1012.34 1013.03 1013.58 1013.93 1014.05 1014.18 1014.26 1014.55 1014.41 1014.62 1015.03 1015.36 1015.81 1016.18 1016.56 1016.99 1017.45 1017.71 1017.88 1018.23 1018.62 1018.30
997.48 996.89 997.21 997.36 998.17 998.64 999.80 1000.89 1001.31 999.93 999.75 999.84 1000.21 1000.62 1001.17 1001.84 1002.51 1003.47 1004.37 1005.22 1005.96 1006.93 1007.81 1008.72 1009.54 1010.23 1011.01 1011.74 1012.51 1013.14 1013.50 1013.93 1013.87 1013.53 1013.84 1014.12 1014.34 1014.74 1015.10 1015.50 1015.94 1016.39 1016.80 1017.13 1017.35 1017.58 1017.84 1018.17 1018.47
995.89 996.90 997.01 997.19 997.57 998.46 999.32 1000.47 999.46 999.47 999.60 999.48 999.39 999.66 1000.00 1000.55 1001.34 1002.25 1003.02 1003.75 1004.62 1005.71 1006.78 1007.74 1008.68 1009.57 1010.30 1011.11 1011.79 1012.57 1013.04 1013.22 1013.22 1013.32 1013.52 1013.90 1014.34 1014.46 1014.62 1015.10 1015.72 1016.34 1016.68 1017.04 1017.24 1017.57 1017.83 1017.93 1018.33
995.97 996.68 996.87 997.11 997.46 998.51 998.48 999.16 998.62 998.06 998.16 998.30 998.18 998.46 998.87 999.52 1000.10 1000.89 1001.61 1002.81 1003.81 1004.71 1005.80 1006.93 1007.91 1008.84 1009.56 1010.37 1011.24 1011.89 1012.45 1012.65 1012.82 1013.10 1013.43 1013.79 1014.15 1014.41 1014.44 1014.86 1015.40 1015.87 1016.61 1017.01 1017.10 1017.20 1017.34 1017.71 1017.84
995.35 996.29 997.04 997.50 997.29 996.92 997.25 997.58 996.26 995.93 996.14 995.98 996.44 996.91 997.56 998.17 999.00 999.98 1001.13 1002.06 1002.88 1003.77 1004.77 1005.98 1007.07 1008.09 1008.84 1009.63 1010.43 1011.05 1011.62 1011.97 1012.28 1012.69 1013.07 1013.62 1014.04 1014.24 1014.44 1014.80 1015.36 1015.93 1016.20 1016.42 1016.64 1017.22 1017.55 1017.69 1017.97
994.17 995.34 995.83 996.37 996.94 996.93 996.21 995.47 994.53 994.00 993.80 994.17 995.00 995.77 996.79 997.13 997.96 998.83 999.65 1000.46 1001.52 1002.63 1003.85 1004.98 1006.13 1007.17 1008.02 1008.78 1009.52 1010.17 1010.79 1011.27 1011.59 1012.01 1012.54 1012.96 1013.27 1013.56 1013.89 1014.54 1015.02 1015.38 1015.78 1016.19 1016.61 1017.23 1017.58 1017.72 1017.90
993.70 993.52 995.09 996.42 996.92 996.68 995.61 994.47 993.39 993.06 993.38 994.06 994.42 994.92 995.99 996.52 997.04 997.57 998.40 999.24 1000.40 1001.59 1002.53 1003.60 1005.18 1006.25 1007.11 1007.85 1008.62 1009.30 1009.96 1010.48 1010.81 1011.25 1011.68 1012.29 1012.59 1012.98 1013.54 1014.04 1014.43 1014.95 1015.35 1015.95 1016.58 1016.88 1017.23 1017.48 1017.60
992.20 993.51 994.68 995.23 996.21 995.97 995.25 994.13 992.95 992.46 992.86 993.36 993.78 993.83 994.36 995.01 996.11 996.67 997.04 998.09 999.14 1000.06 1001.22 1002.67 1003.96 1004.93 1006.03 1007.03 1007.65 1008.34 1009.00 1009.70 1010.20 1010.66 1011.02 1011.48 1011.88 1012.32 1012.96 1013.59 1014.12 1014.57 1015.00 1015.51 1016.10 1016.52 1016.83 1017.22 1017.43
991.84 992.41 993.78 994.63 995.39 995.50 995.25 993.01 992.08 991.75 991.82 992.52 992.76 992.67 992.90 993.05 993.97 995.07 995.77 996.61 997.64 999.13 1000.31 1001.53 1002.93 1004.15 1005.22 1006.05 1006.76 1007.49 1008.09 1008.75 1009.55 1009.99 1010.39 1010.74 1011.22 1011.73 1012.36 1013.04 1013.61 1013.99 1014.41 1014.81 1015.38 1015.94 1016.50 1016.94 1017.13
990.42 991.30 992.82 994.13 994.90 995.06 994.87 992.57 991.10 991.16 991.31 990.78 991.16 992.13 992.13 992.36 992.58 993.91 994.59 995.47 997.10 998.23 999.47 1000.54 1001.91 1003.01 1003.90 1004.90 1005.86 1006.48 1007.20 1007.97 1008.68 1009.10 1009.56 1009.98 1010.51 1011.12 1011.63 1012.14 1012.60 1013.24 1013.79 1014.25 1014.95 1015.56 1015.87 1016.33 1016.72
Wind_Speed
14 10 4 3 1 1 4 3 8 11 7 7 12 7 6 3 4 8 8 14 15 12 11 14 17 17 18 17 17 17 16 16 16 15 15 15 15 13 13 13 12 11 11 10 9 8 7 7 6
11 12 4 2 3 1 4 4 5 14 14 19 14 8 16 12 13 15 12 17 17 14 11 10 15 16 17 16 16 15 15 16 15 13 14 14 13 12 13 12 11 10 9 8 8 7 6 6 5
15 13 2 1 4 3 5 8 8 25 23 12 9 9 9 13 16 12 16 20 18 14 11 12 16 16 16 16 15 14 14 15 14 13 13 13 12 12 11 10 9 9 7 7 6 5 5 5 5
10 2 5 5 11 6 4 10 16 22 18 15 17 13 10 13 12 14 20 19 17 15 12 15 17 18 17 15 14 14 14 13 12 11 12 11 11 10 9 8 8 6 5 5 6 5 4 4 4
4 5 3 6 10 7 7 15 20 24 21 22 22 21 13 19 20 18 17 18 17 13 11 12 16 17 16 15 14 14 13 12 11 11 10 10 10 9 7 7 5 3 4 3 5 5 3 2 2
5 1 3 12 6 11 7 19 23 23 24 22 24 21 12 20 18 15 15 14 17 15 12 11 16 15 15 15 15 13 12 11 10 9 9 8 7 6 5 5 4 2 2 3 3 4 2 1 0
4 9 10 11 9 11 16 19 21 24 24 17 23 26 15 21 20 17 17 15 17 15 12 10 9 12 16 14 14 13 12 11 9 7 6 5 4 3 3 3 3 3 1 1 2 1 1 1 1
6 4 9 8 7 10 16 9 23 26 19 24 30 12 17 19 22 18 16 13 17 14 13 10 8 7 7 7 14 13 12 11 9 7 7 5 4 5 6 5 4 4 3 2 1 2 5 6 2
7 4 7 9 11 6 9 18 20 25 24 23 12 18 25 24 21 17 17 14 15 13 12 11 10 8 7 6 9 11 12 9 9 8 8 7 4 4 6 7 11 4 4 6 2 5 5 6 6
6 2 7 10 10 3 15 22 18 17 15 15 22 18 25 25 22 19 17 17 16 15 15 13 12 11 11 9 7 6 6 5 5 6 6 4 4 3 4 11 8 6 4 6 4 4 4 8 4
7 6 8 17 14 10 11 15 15 14 14 21 24 22 28 21 22 20 17 17 16 18 12 15 15 13 13 9 7 5 4 4 4 6 6 6 5 3 4 2 2 1 6 2 3 2 3 4 4
8 13 7 7 8 6 13 12 15 15 15 24 25 22 17 25 24 20 19 15 16 16 14 13 13 13 10 8 7 7 6 6 5 6 7 4 2 2 3 4 4 3 1 3 3 2 1 5 4
9 12 11 18 18 14 16 12 17 13 27 25 22 19 15 16 24 19 20 18 16 14 13 16 13 10 10 11 6 5 7 7 7 7 7 5 3 1 2 2 2 1 1 0 3 4 3 1 3
14 9 19 12 13 14 13 11 12 20 26 27 24 18 12 12 11 19 19 20 16 14 15 13 14 10 13 7 7 4 4 6 7 5 5 7 4 3 4 2 2 3 1 1 3 1 2 3 3
16 12 20 15 9 11 17 10 16 20 25 25 24 19 15 13 10 10 19 20 17 14 12 16 14 10 8 8 4 1 1 2 3 5 6 5 3 4 4 2 2 1 0 2 2 2 3 4 4
13 8 8 12 10 6 14 7 16 15 23 23 23 20 18 16 15 9 16 20 16 13 18 17 15 12 8 7 5 3 2 2 3 5 5 7 6 5 3 2 2 2 2 3 1 1 3 4 3
7 10 10 12 12 9 10 10 16 15 20 21 21 20 18 15 15 14 12 16 17 12 16 18 15 14 11 7 6 5 4 2 4 4 5 6 7 6 4 3 3 2 2 2 1 1 2 1 3
9 8 11 11 8 15 12 6 12 13 17 20 21 20 18 17 16 16 14 15 15 14 13 13 9 15 13 8 6 4 3 4 3 4 4 6 6 7 5 2 3 3 2 3 1 1 1 1 2
15 14 16 13 11 10 9 10 13 15 10 11 20 20 20 20 15 15 16 16 15 14 14 14 10 12 11 7 7 4 4 3 3 4 6 8 6 7 6 3 3 3 4 4 3 2 2 3 1
20 19 20 14 19 11 18 12 14 15 17 15 19 21 22 20 18 17 16 16 18 15 16 15 13 11 12 9 5 4 4 3 3 2 5 7 8 7 6 6 3 3 2 5 4 3 1 2 1
22 21 16 8 6 5 13 1 8 11 11 14 15 22 22 23 21 18 20 18 17 18 17 16 14 12 12 11 6 3 2 1 2 3 5 8 7 6 6 6 4 4 5 5 4 3 4 1 3
19 23 20 18 13 10 14 6 14 16 17 16 19 21 22 22 21 21 22 19 20 17 17 17 14 14 11 10 10 7 5 5 4 6 7 5 7 7 7 7 7 6 5 6 5 5 4 4 1
22 14 19 20 15 15 14 6 8 19 18 20 16 22 22 22 23 24 24 24 21 19 19 18 18 15 14 12 10 8 5 7 5 3 6 6 6 7 7 7 8 7 5 5 6 4 4 3 4
14 15 18 17 11 6 19 12 9 9 21 14 8 10 24 22 24 24 25 23 20 19 19 18 20 18 15 14 11 11 9 8 5 4 6 7 5 5 7 8 7 6 6 6 5 6 6 3 2
20 11 12 10 11 10 14 17 12 12 13 22 25 20 17 25 23 23 23 22 21 21 22 20 21 19 18 18 15 14 9 10 8 8 7 7 5 3 6 7 7 5 6 6 6 4 3 4 2
19 17 13 13 12 10 9 11 12 18 16 28 21 15 13 14 23 23 23 25 25 23 22 22 23 21 20 19 18 15 14 6 7 7 7 7 9 8 7 9 8 8 8 6 6 4 3 4 4
9 21 12 5 9 6 8 10 10 20 15 20 20 18 10 8 13 25 23 24 24 23 24 24 23 22 21 20 17 16 14 14 8 8 7 7 7 9 10 12 12 10 8 7 7 5 5 5 5
19 6 14 13 15 20 15 12 10 10 19 18 19 16 14 8 11 16 23 22 23 25 22 22 23 25 23 21 17 15 16 14 11 7 9 8 8 7 13 12 12 10 10 8 9 6 5 6 5
8 18 10 8 13 11 11 16 6 11 20 21 20 25 24 22 25 26 24 23 24 23 22 21 22 23 21 21 19 17 16 15 13 11 8 10 8 9 13 13 13 12 12 11 10 8 7 7 7
25 16 10 9 5 5 8 15 8 13 16 25 24 18 15 22 33 27 22 23 20 24 22 23 20 22 22 21 19 19 16 15 15 15 12 11 11 9 14 15 14 14 13 12 12 10 8 8 8
Wind_Direction
157 161 191 54 264 349 270 89 114 135 90 77 54 44 89 20 72 129 148 131 133 129 130 129 126 118 118 116 115 114 112 107 107 108 109 106 110 113 106 104 105 101 96 92 88 89 91 83 76
157 153 74 108 34 272 292 137 161 97 114 108 115 92 65 78 82 112 123 141 138 142 134 129 125 122 123 119 117 120 119 111 106 112 108 109 110 108 107 109 108 105 99 95 90 93 95 94 89
149 93 110 334 196 179 180 165 99 118 129 127 110 107 74 115 120 133 145 146 145 132 127 135 130 128 127 126 126 124 120 116 119 116 113 114 115 112 110 109 104 99 96 90 89 88 92 96 93
157 161 203 224 196 214 196 122 131 121 126 127 123 84 107 117 114 138 146 135 117 125 130 134 132 131 133 135 131 128 123 121 124 121 116 120 119 116 109 102 103 105 100 86 81 80 78 88 95
220 251 264 200 206 151 141 100 119 102 100 99 109 117 103 104 133 137 136 128 125 125 130 133 134 136 141 141 138 135 132 128 130 128 129 126 125 119 119 111 108 111 91 77 71 82 84 104 102
210 222 344 333 127 135 105 109 107 110 110 110 110 116 114 131 136 134 135 133 129 132 133 140 143 140 140 143 140 141 138 136 140 133 126 128 130 134 136 133 147 138 101 59 61 87 114 179 78
293 359 305 306 296 100 126 132 130 128 130 124 131 119 135 148 150 152 152 151 138 134 138 141 144 147 149 143 145 145 147 147 143 132 136 142 140 164 201 198 189 188 154 84 36 27 224 285 7
113 175 281 275 179 104 139 143 135 143 127 140 129 143 159 166 153 153 155 142 133 137 141 149 152 139 132 145 150 152 153 156 143 157 177 175 188 206 240 239 254 263 248 225 179 351 335 331 347
164 58 296 286 89 142 134 106 118 118 129 149 158 149 160 160 159 151 132 141 140 144 149 153 152 153 148 155 160 158 163 168 167 193 195 196 203 221 235 217 232 186 251 269 290 36 358 315 329
100 178 256 283 312 219 134 126 139 131 128 127 139 148 153 159 155 146 150 150 154 152 157 160 164 167 164 165 161 168 181 186 187 209 200 208 230 217 219 234 189 185 195 263 339 94 2 337 343
160 240 245 267 256 228 152 128 130 136 142 152 147 155 153 159 146 150 160 164 155 153 165 166 168 172 174 163 172 184 190 191 200 217 209 182 212 259 234 182 244 8 209 230 206 138 317 309 291
147 229 222 233 286 225 141 143 145 161 146 145 144 150 157 149 156 166 156 155 153 160 171 164 171 169 174 162 178 188 185 194 195 198 210 192 230 198 167 167 204 235 233 228 170 222 287 258 283
202 208 226 246 257 252 139 144 162 164 133 137 142 154 163 161 163 164 157 158 166 170 170 168 175 167 164 174 181 191 199 197 191 196 185 181 177 96 107 158 192 90 131 189 137 176 220 297 357
209 208 226 264 222 170 137 138 114 138 139 140 145 159 173 172 171 163 159 161 176 172 170 164 169 167 165 177 173 176 197 172 173 166 183 183 160 129 106 42 359 337 11 286 131 308 347 330 324
281 263 225 256 218 160 116 89 150 147 142 146 151 160 176 185 183 166 161 163 172 179 174 169 169 165 162 163 159 148 114 115 122 161 163 166 146 136 136 146 279 342 31 193 72 351 339 332 324
280 286 282 220 177 195 114 182 134 147 146 151 155 165 179 189 188 179 158 166 174 168 159 160 174 173 165 157 161 176 239 156 157 131 175 179 165 152 147 195 290 251 167 114 131 354 349 339 357
284 257 269 266 177 157 110 179 192 165 153 157 161 169 182 190 188 180 165 164 169 165 154 170 168 171 170 170 160 184 212 229 195 160 178 170 160 169 166 189 243 167 142 99 118 48 123 335 335
243 241 255 247 197 157 119 181 164 170 162 165 165 172 180 189 192 178 173 168 162 166 160 170 162 169 172 173 163 176 188 220 197 200 173 174 177 173 186 159 172 180 96 111 146 128 341 67 284
245 248 252 252 198 150 142 161 190 182 170 192 172 175 178 188 189 179 177 166 166 167 165 175 168 162 169 171 171 155 166 191 218 212 156 179 173 149 175 168 188 166 155 173 161 125 64 342 323
244 252 261 293 150 133 165 182 223 213 202 185 184 178 180 180 184 177 180 173 172 175 175 177 177 153 172 173 172 153 173 205 209 154 177 182 174 172 179 162 213 191 183 135 117 121 61 315 341
230 241 255 230 18 332 172 1 231 230 180 194 200 180 182 180 183 179 182 178 173 177 176 177 174 161 165 159 158 139 141 251 222 186 185 200 173 168 165 167 156 148 127 149 152 143 123 68 316
224 234 247 256 195 202 170 207 229 211 211 207 200 184 184 185 182 180 182 181 179 178 175 174 171 165 166 158 168 161 180 199 218 197 196 167 164 174 169 166 156 132 147 153 165 153 141 133 111
234 230 240 250 256 143 248 244 211 200 213 213 192 187 190 185 183 184 184 187 183 174 177 171 174 169 173 177 168 174 186 204 215 184 167 163 173 177 178 156 149 148 152 149 136 133 132 130 137
238 233 248 253 250 192 210 191 242 183 190 186 188 204 190 189 188 185 187 181 183 177 172 171 173 179 172 178 178 184 191 205 206 162 150 160 164 166 170 148 155 153 140 162 162 166 167 164 130
220 218 235 246 241 238 182 193 209 212 187 175 187 202 204 189 188 189 183 186 185 179 176 174 175 180 179 179 183 190 194 208 197 169 160 157 165 169 175 152 152 153 159 181 164 158 157 171 177
213 214 221 216 226 245 227 203 220 204 209 194 182 196 195 191 190 188 185 187 187 183 178 174 179 180 181 183 189 191 201 203 206 176 173 175 176 183 173 161 160 168 169 180 152 151 178 189 185
229 216 227 253 254 256 231 255 259 213 197 188 183 165 193 236 201 189 186 186 185 183 180 180 178 181 183 182 187 192 194 204 200 188 173 181 181 181 176 173 174 171 175 168 163 170 188 198 197
211 192 209 225 227 244 251 244 238 188 179 173 182 185 193 212 183 213 185 184 184 185 179 178 177 181 182 186 187 191 196 200 202 182 191 180 195 170 178 177 177 170 178 169 171 178 194 188 202
216 222 227 198 223 232 240 250 244 187 179 175 186 197 196 190 188 210 192 184 183 182 177 178 177 179 183 185 188 192 195 196 197 198 192 188 190 165 174 177 178 183 179 180 178 180 188 192 203
215 207 195 216 263 252 233 253 272 222 199 185 188 198 221 190 201 201 182 180 170 179 178 180 175 180 184 185 186 194 194 193 197 206 198 191 196 171 177 180 182 187 190 181 181 185 192 193 200